Starlink 11637

operational
NORAD ID: 63190 Int'l Des: 2025-048 Owner: SPXS Country: US Constellation: starlink
LEOCIRCULAR

Über Starlink 11637

Beschreibung wird geladen...

Live-Position

3D-Globus wird geladen...

Nächste Überflüge

Höhenverlauf

Altitude vs Time

uPlot chart will show altitude changes over time

Zweizeiliger Elementsatz

1 63190U 25048H 26095.24809031 .00208381 00000-0 15876-2 0 9998
2 63190 42.9995 160.2104 0002608 260.2807 99.7766 15.70831477 62694
Epoch: 5. Apr. 2026 • Age: 11 hours

Aktueller Status

Höhe 359.9 km
Geschwindigkeit 7.70 km/s
Subsatellitenpunkt 39.22°N, 130.13°E
Startdatum 13. März 2025
Alter 1 years
Typ internet

Technische Details

Klassifizierung Payload
Masse 960.00 kg
Trockenmasse 910.00 kg
Gesamtmasse 960.00 kg
Länge 0.30 m
Durchmesser 4.10 m
Spannweite 29.00 m
Form Box + pan
Hersteller SPXS
Bus-Typ Starlink V2MD
Phasenstatus In Orbit
Besitzer/Staat SPXS/US

Große Konstellationen

Loading constellations...